Location: Marne
(34.0056°N, 117.9064°W)
Time: 09:13:29
(UTC+00:00)

Cosmos 2333 Rocket - Visible Passes

Search period start: 06 June 2020 00:00
Search period end: 16 June 2020 00:00
Orbit: 840 x 861 km, 70.8° (Epoch: 05 June)

Date Brightness Start Highest point End Pass type
(mag) Time Alt. Az. Time Alt. Az. Time Alt. Az.
06 Jun 2.2 11:19:23 18° SSW 11:23:38 82° WNW 11:29:20 10° NNE visible
07 Jun 2.1 11:07:42 23° SSW 11:11:18 82° WNW 11:17:00 10° NNE visible
08 Jun 2.1 10:55:59 29° SSW 10:58:59 83° WNW 11:04:41 10° NNE visible
09 Jun 2.1 10:44:13 36° SSW 10:46:39 83° WNW 10:52:21 10° NNE visible
10 Jun 2.1 10:32:24 43° SSW 10:34:19 83° WNW 10:40:01 10° NNE visible
11 Jun 2.1 10:20:33 52° SSW 10:21:59 83° WNW 10:27:42 10° NNE visible
11 Jun 4.4 12:06:11 10° WNW 12:07:07 10° NW 12:08:02 10° NW visible
12 Jun 2.1 10:08:39 61° SW 10:09:39 83° WNW 10:15:22 10° NNE visible
12 Jun 4.4 11:53:50 10° WNW 11:54:47 10° NW 11:55:44 10° NW visible
13 Jun 2.0 09:56:42 71° SW 09:57:20 83° WNW 10:03:02 10° NNE visible
13 Jun 4.4 11:41:29 10° WNW 11:42:27 10° NW 11:43:25 10° NW visible
14 Jun 2.0 09:44:44 79° WSW 09:45:00 83° WNW 09:50:43 10° NNE visible
14 Jun 4.4 11:29:08 10° WNW 11:30:07 10° NW 11:31:07 10° NW visible
15 Jun 2.1 09:32:44 83° WNW 09:32:44 83° WNW 09:38:23 10° NNE visible
15 Jun 4.4 11:16:46 10° WNW 11:17:47 10° NW 11:18:49 10° NW visible
